S-Net D
1 43186U 18014G 21189.74459938 .00000486 00000-0 47166-4 0 9992
2 43186 97.6758 96.9488 0011220 18.4121 341.7505 14.97079836187480
S-Net B
1 43187U 18014H 21189.54401040 .00000469 00000-0 45648-4 0 9996
2 43187 97.6756 96.7176 0011232 18.9019 341.2617 14.97079056187455
S-Net A
1 43188U 18014J 21189.74459303 .00000482 00000-0 46800-4 0 9990
2 43188 97.6760 96.9602 0011214 18.4583 341.7044 14.97078124187485
S-Net C
1 43189U 18014K 21189.54456212 .00000486 00000-0 47101-4 0 9994
2 43189 97.6756 96.7105 0011222 19.0479 341.1160 14.97077792186007
FMN 1
1 43192U 18015A 21189.83453791 .00004272 00000-0 15766-3 0 9998
2 43192 97.4915 325.3116 0014968 161.5193 353.2242 15.28227267190857
Shaonian Xing
1 43199U 18015H 21189.79700223 .00003028 00000-0 11446-3 0 9994
2 43199 97.4695 322.3516 0016048 171.2882 324.1574 15.27659564190903
SurfSat
1 43614U 18070B 21189.89150341 .00004638 00000-0 10750-3 0 9993
2 43614 93.0341 314.9202 0011309 282.3792 77.6198 15.42394267157978
CP-7 DAVE
1 43615U 18070C 21189.58840641 .00004841 00000-0 11332-3 0 9992
2 43615 93.0345 314.7472 0011527 283.9558 76.0415 15.42092761157912
ELFIN-B
1 43616U 18070D 21189.50569877 .00008123 00000-0 17153-3 0 9998
2 43616 93.0298 314.9281 0011263 280.4504 79.5484 15.45130941158023
ELFIN-A
1 43617U 18070E 21189.32943276 .00008852 00000-0 18383-3 0 9993
2 43617 93.0344 315.7207 0010680 277.1619 82.8424 15.45623601158015
CubeBel 1
1 43666U 18083E 21189.78705286 .00001892 00000-0 92256-4 0 9997
2 43666 97.4536 217.8846 0016278 93.5481 24.2730 15.19433523149256
Changshagaoxin
1 43669U 18083H 21189.79350859 .00001518 00000-0 77434-4 0 9999
2 43669 97.4451 214.8988 0012482 89.3355 25.4704 15.18189894149123
Ten-Koh
1 43677U 18084G 21189.33394589 .00000143 00000-0 20548-4 0 9994
2 43677 97.9229 312.4276 0015181 330.5799 29.4563 14.90482744146412
PO-101
1 43678U 18084H 21189.91791737 .00000480 00000-0 53361-4 0 9998
2 43678 97.9258 315.3081 0009562 349.3187 10.7829 14.91765362146639
IRVINE 01
1 43693U 18088D 21189.93550137 .00004238 00000-0 16386-3 0 9998
2 43693 85.0336 180.6806 0014133 311.8734 48.1303 15.25814427147718
QO-100
1 43700U 18090A 21189.73848994 .00000154 00000-0 00000 0 0 9994
2 43700 0.0163 48.6090 0001208 92.5875 77.3519 1.00273026 9822
Reaktor Hello World
1 43743U 18096AA 21189.52442540 .00002278 00000-0 83525-4 0 9998
2 43743 97.3859 266.8762 0016675 196.3596 163.7108 15.28903639145355
MinXSS-2
1 43758U 18099A 21189.43738437 .00000060 00000-0 10443-4 0 9996
2 43758 97.6663 260.1948 0015000 344.1874 15.8877 14.96090589141657
AO-95
1 43770U 18099N 21189.46154955 .00000594 00000-0 58921-4 0 9995
2 43770 97.6640 259.1841 0014089 353.6624 6.4416 14.95349690141597
RANGE-B
1 43772U 18099Q 21189.15111975 .00000917 00000-0 87467-4 0 9994
2 43772 97.6732 259.9078 0013342 342.2439 17.8314 14.95659056141559
RANGE-A
1 43773U 18099R 21189.73625875 .00000696 00000-0 68361-4 0 9994
2 43773 97.6576 258.7549 0012750 340.1526 19.9197 14.95235962141628
MOVE-II
1 43780U 18099Y 21189.74885557 .00001121 00000-0 10503-3 0 9996
2 43780 97.6663 260.0237 0012833 350.7817 9.3167 14.95973463141653
SNUSat 2
1 43782U 18099AA 21189.75849751 .00000337 00000-0 35476-4 0 9990
2 43782 97.6643 259.8233 0012032 339.7420 20.3322 14.95592528141658
SnugLite
1 43784U 18099AC 21189.43059054 .00000132 00000-0 16986-4 0 9994
2 43784 97.6607 259.2236 0014595 347.4318 12.6537 14.95720369141620
ITASat 1
1 43786U 18099AE 21189.44355346 -.00000059 00000-0 -17015-6 0 9996
2 43786 97.6662 259.8594 0014707 346.1997 13.8820 14.95641453141624
EAGLET 1
1 43790U 18099AJ 21189.47317344 .00000780 00000-0 74619-4 0 9990
2 43790 97.6652 260.3086 0012900 351.1167 8.9824 14.95989449141358
ESEO
1 43792U 18099AL 21189.46129970 .00000244 00000-0 27006-4 0 9990
2 43792 97.6614 259.8730 0012798 347.7951 12.2959 14.95750385141402
CSIM
1 43793U 18099AM 21189.74150231 .00001209 00000-0 11102-3 0 9997
2 43793 97.6649 260.5700 0011980 343.6860 16.3974 14.96634832141459
Astrocast 0.1
1 43798U 18099AS 21189.75411341 .00000755 00000-0 71957-4 0 9995
2 43798 97.6661 260.7883 0011302 330.1112 29.9463 14.96222591141707
JO-97
1 43803U 18099AX 21189.73838807 .00000863 00000-0 82114-4 0 9997
2 43803 97.6623 259.8971 0014389 345.4889 14.5917 14.95893364141678
Suomi 100
1 43804U 18099AY 21189.74430578 .00000888 00000-0 84439-4 0 9991
2 43804 97.6622 259.8678 0014497 345.8973 14.1841 14.95864385141684
Al Farabi 2
1 43805U 18099AZ 21189.60844552 .00000791 00000-0 75396-4 0 9993
2 43805 97.6626 259.9642 0014707 345.9899 14.0928 14.96086616141671
CHOMPTT
1 43855U 18104G 21189.53059013 .00001617 00000-0 64633-4 0 9997
2 43855 85.0375 279.5327 0019202 71.6751 288.6579 15.24065121142303
ISAT
1 43879U 18111D 21189.92361477 .00000037 00000-0 82778-5 0 9990
2 43879 97.6842 96.8017 0014353 35.3829 324.8326 14.96662662136260
UWE-4
1 43880U 18111E 21189.70774349 .00000378 00000-0 37890-4 0 9996
2 43880 97.6863 97.0780 0013458 38.8053 321.4133 14.96903336136262
Sparrow
1 43881U 18111F 21189.54397813 .00000655 00000-0 61921-4 0 9996
2 43881 97.6862 97.0527 0013217 36.7815 323.4311 14.96953476138247
Lume 1
1 43908U 18111AJ 21189.43969328 .00001667 00000-0 66661-4 0 9990
2 43908 97.2314 83.4791 0019283 213.0145 146.9892 15.26319726140874
FO-98
1 43933U 19003B 21189.39553378 .00013085 00000-0 48724-3 0 9994
2 43933 97.1815 230.0202 0014118 323.4476 36.5799 15.27501219137304
FO-99
1 43937U 19003F 21189.37359719 .00002138 00000-0 85755-4 0 9992
2 43937 97.1745 231.7167 0021415 300.6010 59.3117 15.25855830137459
MYSat 1
1 44045U 18092F 21189.75457749 .00004664 00000-0 12405-3 0 9991
2 44045 51.6388 322.2166 0009824 284.5933 75.3962 15.40193350134741
AstroCast 0.2
1 44083U 19018F 21189.66677037 .00001628 00000-0 72835-4 0 9997
2 44083 97.3716 250.3498 0011138 255.8579 104.1420 15.22665812126122
AISTechSat 3
1 44103U 19018AB 21189.75372627 .00001404 00000-0 60575-4 0 9997
2 44103 97.3580 250.8335 0011302 271.0694 236.8000 15.24141927126259
AISat 1
1 44104U 19018AC 21189.17632168 .00001162 00000-0 38395-4 0 9999
2 44104 97.4253 266.4993 0054890 281.9736 77.5356 15.32141120126840
Raavana-1
1 44329U 98067QE 21189.36673466 .00068476 00000-0 35878-3 0 9999
2 44329 51.6324 176.9181 0005695 27.9456 332.1851 15.80130975117467
Uguisu
1 44330U 98067QF 21189.68941258 .00063569 00000-0 34367-3 0 9993
2 44330 51.6279 175.9669 0005848 26.4759 333.6540 15.79470114117481
NepaliSat-1
1 44331U 98067QG 21189.36401554 .00066588 00000-0 35100-3 0 9999
2 44331 51.6297 176.7975 0005617 27.3877 332.7420 15.80010139117459
Prox-1
1 44339U 19036A 21189.71793795 .00000848 00000-0 14928-3 0 9998
2 44339 23.9990 200.2790 0011559 55.9199 304.2388 14.53624905108350
Oculus-ASR
1 44348U 19036K 21189.52695899 .00021022 00000-0 28238-3 0 9999
2 44348 28.5123 353.6124 0327789 135.0226 227.7407 15.12747193112109
Armadillo
1 44352U 19036P 21189.46000747 .00035556 00000-0 44359-3 0 9998
2 44352 28.5296 331.2144 0295369 169.6361 191.0489 15.20758155112270
NO-104
1 44354U 19036R 21189.46824589 .00022595 00000-0 29632-3 0 9994
2 44354 28.5287 346.8785 0322600 143.8731 218.4117 15.14295334112167
NO-103
1 44355U 19036S 21189.66188350 .00041944 -59466-5 43179-3 0 9993
2 44355 28.5283 296.9819 0255979 225.2286 132.7222 15.31594456112678
CP9
1 44360U 19036X 21189.44085833 .00097930 -41888-5 58942-3 0 9996
2 44360 28.5011 227.3032 0168885 340.7129 18.7142 15.58764476113222
